This demonstration page uses our WeatherBlox Daily Observations layout. Learn more.

Left ArrowRight Arrow

39.01783, -85.05884

Hourly Observations for January 17, 2021

Temp ( °F °C ) Dew Point ( °F °C ) Humidity (%) Winds ( mph kmh ) Pressure ( in mb ) Visibility ( mi km ) Precip ( " mm )
12:52 am 00:52 Cloudy with Light Snow 34 1.1 30 -1.1 85 85 WSW 8 13 29.78 1009 6 10 0.00 0.00
1:36 am 01:36 Cloudy 34 1.1 30 -1.1 85 85 WSW 10 17 29.81 1010 10 16 0.00 0.00
1:52 am 01:52 Cloudy 34 1.1 30 -1.1 85 85 W 13 20 29.78 1009 10 16 0.00 0.00
2:52 am 02:52 Cloudy with Light Snow 34 1.1 30 -1.1 85 85 WSW 8 13 29.79 1009 7 11 0.00 0.00
3:52 am 03:52 Cloudy 33 0.6 29 -1.7 85 85 WSW 7 11 29.79 1009 10 16 0.00 0.00
4:16 am 04:16 Cloudy with Light Snow 33 0.6 29 -1.7 85 85 WSW 7 11 29.82 1010 7 11 0.00 0.00
4:33 am 04:33 Cloudy 33 0.6 30 -1.1 89 89 SW 8 13 29.81 1010 10 16 0.00 0.00
4:52 am 04:52 Cloudy 33 0.6 29 -1.7 85 85 SW 8 13 29.78 1009 10 16 0.00 0.00
5:52 am 05:52 Cloudy 33 0.6 29 -1.7 85 85 WSW 8 13 29.78 1009 10 16 0.00 0.00
6:52 am 06:52 Cloudy 33 0.6 29 -1.7 85 85 WSW 6 9 29.79 1009 10 16 0.00 0.00
7:52 am 07:52 Cloudy 33 0.6 29 -1.7 85 85 WSW 9 15 29.79 1009 9 14 0.00 0.00
8:52 am 08:52 Cloudy with Light Snow 33 0.6 30 -1.1 89 89 SW 7 11 29.80 1009 2 3 0.01 0.25
9:04 am 09:04 Cloudy with Light Snow 33 0.6 30 -1.1 89 89 SW 6 9 29.83 1010 2 3 0.00 0.00
9:15 am 09:15 Cloudy with Light Snow 33 0.6 30 -1.1 89 89 SW 6 9 29.83 1010 2 3 0.00 0.00
9:52 am 09:52 Cloudy with Light Snow 33 0.6 30 -1.1 89 89 SSW 7 11 29.80 1009 2 3 0.00 0.00
10:33 am 10:33 Cloudy with Light Snow 34 1.1 31 -0.6 89 89 SSW 6 9 29.82 1010 2 3 0.00 0.00
10:52 am 10:52 Cloudy with Light Snow 34 1.1 31 -0.6 89 89 SSW 8 13 29.79 1009 2 3 0.00 0.00
11:52 am 11:52 Cloudy with Light Snow 35 1.7 32 0 89 89 SSW 8 13 29.77 1008 3 4 0.00 0.00
12:52 pm 12:52 Cloudy with Light Snow 35 1.7 32 0 89 89 SW 8 13 29.74 1007 2 3 0.01 0.25
1:52 pm 13:52 Cloudy with Light Snow 34 1.1 31 -0.6 89 89 W 6 9 29.73 1007 1 1 0.02 0.51
2:11 pm 14:11 Cloudy with Snow 33 0.6 31 -0.6 92 92 WSW 3 6 29.76 1008 0 0 0.03 0.76
2:39 pm 14:39 Cloudy with Light Snow 34 1.1 32 0 92 92 WSW 9 15 29.75 1008 2 2 0.04 1.02
2:48 pm 14:48 Cloudy with Mist and Fog 36 2 30 -1 81 81 WSW 10 17 29.75 1007 3 4 0.04 1.02
2:52 pm 14:52 Cloudy with Mist and Fog 35 1.7 31 -0.6 85 85 WSW 9 15 29.72 1007 3 4 0.04 1.02
3:52 pm 15:52 Cloudy with Light Snow 34 1.1 30 -1.1 85 85 WSW 10 17 29.74 1007 3 4 0.00 0.00
3:59 pm 15:59 Cloudy with Light Snow 34 1.1 30 -1.1 85 85 WSW 10 17 29.77 1008 3 4 0.00 0.00
4:23 pm 16:23 Cloudy with Light Snow 34 1.1 30 -1.1 85 85 WSW 9 15 29.77 1008 2 2 0.00 0.00
4:27 pm 16:27 Cloudy with Light Snow 34 1.1 30 -1.1 85 85 W 8 13 29.78 1009 3 4 0.00 0.00
4:48 pm 16:48 Cloudy 34 1 28 -2 81 81 WSW 8 13 29.78 1009 3 4 0.00 0.00
4:52 pm 16:52 Cloudy with Light Snow 33 0.6 29 -1.7 85 85 WSW 8 13 29.76 1008 3 4 0.00 0.00
5:52 pm 17:52 Cloudy 33 0.6 29 -1.7 85 85 SW 7 11 29.77 1008 3 4 0.00 0.00
6:19 pm 18:19 Cloudy with Mist and Fog 33 0.6 30 -1.1 89 89 SSW 9 15 29.80 1009 3 4 0.00 0.00
6:32 pm 18:32 Cloudy with Light Snow 32 0 29 -1.7 88 88 SW 10 17 29.81 1009 1 2 0.00 0.00
6:45 pm 18:45 Cloudy with Light Snow 32 0 29 -1.7 88 88 WSW 9 15 29.82 1010 4 6 0.01 0.25
6:52 pm 18:52 Cloudy 32 0 29 -1.7 88 88 WSW 9 15 29.78 1009 7 11 0.01 0.25
7:30 pm 19:30 Cloudy 32 0 27 -2.8 82 82 WSW 9 15 29.82 1010 10 16 0.00 0.00
7:52 pm 19:52 Cloudy 32 0 27 -2.8 82 82 WSW 8 13 29.79 1009 10 16 0.00 0.00
8:26 pm 20:26 Cloudy 32 0 27 -2.8 82 82 W 8 13 29.83 1010 9 14 0.00 0.00
8:52 pm 20:52 Cloudy 32 0 27 -2.8 82 82 WSW 7 11 29.79 1009 9 14 0.00 0.00
9:24 pm 21:24 Cloudy with Light Snow 32 0 27 -2.8 82 82 W 9 15 29.84 1010 2 3 0.00 0.00
9:26 pm 21:26 Cloudy with Light Snow 31 -0.6 27 -2.8 85 85 WSW 12 19 29.84 1010 2 2 0.00 0.00
9:29 pm 21:29 Cloudy with Mist and Fog 31 -0.6 27 -2.8 85 85 WSW 9 15 29.84 1010 3 5 0.00 0.00
9:52 pm 21:52 Cloudy 31 -0.6 27 -2.8 85 85 W 10 17 29.80 1009 10 16 0.00 0.00
10:15 pm 22:15 Cloudy with Light Snow 31 -0.6 27 -2.8 85 85 WSW 7 11 29.84 1010 8 13 0.00 0.00
10:52 pm 22:52 Cloudy 31 -0.6 26 -3.3 82 82 W 10 17 29.80 1009 8 13 0.00 0.00
11:24 pm 23:24 Cloudy 31 -0.6 26 -3.3 82 82 WSW 8 13 29.84 1010 9 14 0.00 0.00
11:52 pm 23:52 Cloudy 30 -1.1 27 -2.8 88 88 WSW 7 11 29.80 1009 10 16 0.00 0.00

Powered by AerisWeather